Date String (YYYY-MM-DD hh:mm:ss) UTC,Instrument flags,Ambient pressure (hPa),Sample flow (lpm),Bypass flow (lpm),Sample temperature (°C),Ambient temperature (°C),ASC tube jacket temperature (°C),LED temperature (°C),Box temperature (°C),Sample RH (%),Span deviation,Mass concentration (μg/m³),Mass concentration (μg/m³),Mass concentration (μg/m³)
DateTimeUTC,F1_M11,P_M11,Q1_M11,Q2_M11,T1_M11,T2_M11,T3_M11,T4_M11,T5_M11,U1_M11,ZSPAN_M11,X2_M11,X0_M11,X1_M11
2021-08-23 04:00:00,,0826.2,4.98,0.00,29.6,28.7,00.0,38.5,31.5,18.9,0001.7,0008.69,0012.70,0008.25
2021-08-23 04:01:00,,0826.2,5.02,0.00,29.6,28.4,00.0,38.5,31.4,18.4,0001.6,0008.80,0012.95,0008.33
2021-08-23 04:02:00,,0826.2,4.99,0.00,29.5,26.6,00.0,38.5,30.9,18.2,0001.9,0008.90,0013.08,0008.40
2021-08-23 04:03:00,,0826.2,5.00,0.00,29.4,26.2,00.0,38.5,30.8,18.5,0002.1,0008.96,0013.19,0008.45
2021-08-23 04:04:00,,0826.2,5.01,0.00,29.3,26.5,00.0,38.5,30.8,18.0,0002.1,0008.97,0012.95,0008.49
2021-08-23 04:05:00,,0826.2,4.99,0.00,29.3,26.9,00.0,38.4,30.9,18.0,0002.2,0008.96,0012.71,0008.51
2021-08-23 04:06:00,,0826.2,5.01,0.00,29.3,27.2,00.0,38.4,31.0,17.9,0002.0,0008.92,0012.93,0008.49
2021-08-23 04:07:00,,0826.2,4.99,0.00,29.3,27.6,00.0,38.4,31.1,17.7,0001.8,0008.88,0012.94,0008.45
2021-08-23 04:08:00,,0826.2,5.00,0.00,29.3,27.8,00.0,38.4,31.1,17.5,0002.2,0008.82,0012.86,0008.41
2021-08-23 04:09:00,,0826.2,5.02,0.00,29.3,28.0,00.0,38.4,31.2,17.6,0002.4,0008.81,0012.85,0008.39
2021-08-23 04:10:00,,0826.2,4.98,0.00,29.4,28.2,00.0,38.4,31.2,17.8,0002.2,0008.76,0012.85,0008.34
2021-08-23 04:11:00,,0826.2,5.01,0.00,29.4,28.3,00.0,38.4,31.3,17.8,0002.3,0008.70,0012.75,0008.28
2021-08-23 04:12:00,,0826.2,5.01,0.00,29.4,28.3,00.0,38.5,31.3,17.7,0002.5,0008.61,0012.63,0008.21
2021-08-23 04:13:00,,0826.2,5.00,0.00,29.5,28.4,00.0,38.5,31.4,17.6,0002.5,0008.50,0012.77,0008.10
2021-08-23 04:14:00,,0826.1,4.99,0.00,29.5,28.5,00.0,38.5,31.4,17.5,0002.2,0008.37,0012.53,0008.01
2021-08-23 04:15:00,,0826.2,5.00,0.00,29.6,28.6,00.0,38.5,31.4,18.0,0001.9,0008.29,0012.39,0007.91
2021-08-23 04:16:00,,0826.1,5.00,0.00,29.6,28.6,00.0,38.5,31.5,17.3,0001.9,0008.21,0012.35,0007.83
2021-08-23 04:17:00,,0826.1,5.00,0.00,29.6,28.7,00.0,38.6,31.5,17.0,0002.4,0008.13,0011.94,0007.72
2021-08-23 04:18:00,,0826.2,5.00,0.00,29.6,27.5,00.0,38.6,31.1,16.7,0002.5,0008.01,0011.65,0007.61
2021-08-23 04:19:00,,0826.2,5.01,0.00,29.4,26.1,00.0,38.5,30.8,16.9,0002.1,0007.90,0011.52,0007.52
2021-08-23 04:20:00,,0826.2,4.99,0.00,29.4,26.3,00.0,38.5,30.8,17.1,0002.2,0007.85,0011.53,0007.44
2021-08-23 04:21:00,,0826.2,5.01,0.00,29.3,26.7,00.0,38.5,30.9,17.0,0002.7,0007.74,0011.37,0007.35
2021-08-23 04:22:00,,0826.2,4.99,0.00,29.3,27.0,00.0,38.5,31.0,17.1,0002.7,0007.65,0011.27,0007.24
2021-08-23 04:23:00,,0826.2,4.99,0.00,29.3,27.4,00.0,38.4,31.1,17.0,0002.6,0007.54,0011.09,0007.13
2021-08-23 04:24:00,,0826.2,5.00,0.00,29.3,27.6,00.0,38.4,31.1,17.1,0002.7,0007.44,0010.63,0007.05
2021-08-23 04:25:00,,0826.2,5.00,0.00,29.4,27.8,00.0,38.4,31.2,17.2,0002.9,0007.40,0010.68,0006.99
2021-08-23 04:26:00,,0826.2,4.99,0.00,29.4,28.0,00.0,38.4,31.2,17.1,0003.1,0007.36,0010.57,0006.96
2021-08-23 04:27:00,,0826.2,5.01,0.00,29.4,28.1,00.0,38.5,31.3,16.9,0003.2,0007.30,0010.47,0006.91
2021-08-23 04:28:00,,0826.2,5.00,0.00,29.4,28.2,00.0,38.5,31.3,16.8,0003.0,0007.26,0010.41,0006.86
2021-08-23 04:29:00,,0826.2,4.99,0.00,29.5,28.3,00.0,38.5,31.3,16.8,0002.8,0007.23,0010.40,0006.82
2021-08-23 04:30:00,,0826.2,5.00,0.00,29.5,28.4,00.0,38.5,31.4,16.8,0002.9,0007.21,0010.36,0006.79
2021-08-23 04:31:00,,0826.2,5.00,0.00,29.5,28.5,00.0,38.5,31.4,16.7,0002.5,0007.16,0010.20,0006.77
2021-08-23 04:32:00,,0826.3,5.00,0.00,29.6,28.6,00.0,38.6,31.5,16.7,0002.1,0007.15,0010.23,0006.76
2021-08-23 04:33:00,,0826.2,5.00,0.00,29.6,28.6,00.0,38.6,31.5,16.6,0001.7,0007.14,0010.64,0006.75
2021-08-23 04:34:00,,0826.2,4.99,0.00,29.6,28.7,00.0,38.6,31.5,16.6,0001.8,0007.13,0010.65,0006.75
2021-08-23 04:35:00,,0826.3,5.01,0.00,29.7,28.8,00.0,38.6,31.6,16.6,0001.8,0007.10,0010.59,0006.74
2021-08-23 04:36:00,,0826.3,5.00,0.00,29.7,27.8,00.0,38.6,31.3,16.7,0001.8,0007.07,0010.51,0006.70
2021-08-23 04:37:00,,0826.4,4.99,0.00,29.5,26.3,00.0,38.6,30.9,16.8,0001.9,0007.04,0010.46,0006.68
2021-08-23 04:38:00,,0826.3,5.01,0.00,29.4,26.3,00.0,38.6,30.9,16.9,0001.8,0007.02,0010.43,0006.65
2021-08-23 04:39:00,,0826.3,5.00,0.00,29.4,26.6,00.0,38.5,30.9,16.9,0002.1,0006.98,0010.34,0006.62
2021-08-23 04:40:00,,0826.4,5.00,0.00,29.3,27.0,00.0,38.5,31.0,16.8,0002.3,0006.96,0010.38,0006.60
2021-08-23 04:41:00,,0826.4,4.99,0.00,29.4,27.4,00.0,38.5,31.1,16.6,0002.3,0006.96,0010.67,0006.58
2021-08-23 04:42:00,,0826.4,5.01,0.00,29.4,27.6,00.0,38.5,31.1,16.6,0002.6,0006.93,0010.76,0006.56
2021-08-23 04:43:00,,0826.4,4.99,0.00,29.4,27.8,00.0,38.5,31.2,16.5,0002.9,0006.89,0010.77,0006.53
2021-08-23 04:44:00,,0826.5,5.00,0.00,29.4,28.0,00.0,38.5,31.3,16.3,0003.2,0006.85,0010.24,0006.49
2021-08-23 04:45:00,,0826.4,4.99,0.00,29.4,28.1,00.0,38.5,31.3,16.4,0003.0,0006.82,0010.13,0006.46
2021-08-23 04:46:00,,0826.5,5.00,0.00,29.5,28.3,00.0,38.5,31.3,16.3,0002.8,0006.80,0010.18,0006.42
2021-08-23 04:47:00,,0826.5,5.00,0.00,29.5,28.4,00.0,38.5,31.4,16.4,0002.9,0006.76,0010.13,0006.40
2021-08-23 04:48:00,,0826.5,4.99,0.00,29.5,28.4,00.0,38.5,31.4,16.7,0003.1,0006.76,0010.21,0006.39
2021-08-23 04:49:00,,0826.5,5.01,0.00,29.6,28.5,00.0,38.6,31.4,16.7,0002.8,0006.76,0010.27,0006.38
2021-08-23 04:50:00,,0826.5,5.00,0.00,29.6,28.6,00.0,38.6,31.5,16.6,0002.1,0006.72,0010.21,0006.37
2021-08-23 04:51:00,,0826.5,5.00,0.00,29.6,28.7,00.0,38.6,31.5,16.6,0002.1,0006.69,0010.11,0006.35
2021-08-23 04:52:00,,0826.5,5.00,0.00,29.7,28.7,00.0,38.6,31.5,16.6,0002.2,0006.68,0009.82,0006.34
2021-08-23 04:53:00,,0826.5,5.00,0.00,29.7,28.8,00.0,38.7,31.5,16.3,0001.9,0006.65,0009.74,0006.33
2021-08-23 04:54:00,,0826.5,5.00,0.00,29.7,28.2,00.0,38.7,31.4,16.1,0001.9,0006.62,0009.83,0006.31
2021-08-23 04:55:00,,0826.5,4.99,0.00,29.6,26.5,00.0,38.6,30.9,16.1,0001.9,0006.59,0009.95,0006.28
2021-08-23 04:56:00,,0826.5,5.00,0.00,29.4,26.4,00.0,38.6,30.9,16.3,0001.9,0006.56,0010.13,0006.24
2021-08-23 04:57:00,,0826.5,5.01,0.00,29.4,26.7,00.0,38.6,30.9,16.4,0001.9,0006.56,0010.15,0006.24
2021-08-23 04:58:00,,0826.5,5.00,0.00,29.4,27.1,00.0,38.6,31.0,16.4,0001.6,0006.58,0010.22,0006.24
2021-08-23 04:59:00,,0826.5,5.01,0.00,29.4,27.4,00.0,38.5,31.1,16.4,0001.4,0006.53,0010.15,0006.20
